Weather History for Corona, CA

Change the Weather History Date:

Monday, November 11, 2013

  Actual Average (KONT) Record (KONT)
Temperature  
Mean Temperature 56 °F 61 °F  
Max Temperature 79 °F 74 °F 83 °F (2009)
Min Temperature 34 °F 48 °F 36 °F (2012)
Degree Days  
Heating Degree Days 8 5  
Month to date heating degree days 40  
Since 1 July heating degree days 85  
Cooling Degree Days 0 1  
Month to date cooling degree days 15  
Year to date cooling degree days 1698  
Growing Degree Days 6 (Base 50)    
Moisture  
Dew Point 41 °F    
Average Humidity 67    
Maximum Humidity 100    
Minimum Humidity 24    
Precipitation  
Precipitation 0.00 in 0.04 in 0.03 in (2000)
Month to date precipitation 0.51  
Year to date precipitation 12.02  
Since 1 July precipitation 1.64  
Snow  
Snow 0.00 in - - ()
Month to date snowfall  
Year to date snowfall  
Since 1 July snowfall  
Snow Depth -    
Sea Level Pressure  
Sea Level Pressure 30.08 in    
Wind  
Wind Speed 2 mph (West)    
Max Wind Speed 10 mph    
Max Gust Speed -    
Visibility 10 miles    
Events      
T = Trace of Precipitation, MM = Missing Value Source: NWS Daily Summary

Daily Weather History Graph

Daily Weather History Graph

Search for Another Location

Airport:

Trip Planner

Search our weather history database for the weather conditions in past years. The results will help you decide how hot, cold, wet, or windy it might be!

Date:

Astronomy

Nov. 11, 2013 Rise Set
Actual Time 6:19 AM PST 4:49 PM PST
Civil Twilight 5:52 AM PST 5:15 PM PST
Nautical Twilight 5:22 AM PST 5:45 PM PST
Astronomical Twilight 4:53 AM PST 6:15 PM PST
Moon 1:18 PM PST (11/11) 12:25 AM PST (11/11)
Length of Visible Light 11h 22m
Length of Day
10h 30m
Waxing Gibbous, 67% of the Moon is Illuminated
Nov 11
Waxing Gibbous
Nov 17
Full
Nov 25
Last Quarter
Dec 2
New
Dec 9
First Quarter

Hourly Weather History & Observations

Time (PST) Temp. Windchill Dew Point Humidity Pressure Visibility Wind Dir Wind Speed Gust Speed Precip Events Conditions
12:56 AM 38.8 °F - 37.9 °F 97% 30.09 in 10.0 mi Calm Calm - N/A   Clear
1:56 AM 37.9 °F - 37.9 °F 100% 30.08 in 9.0 mi Calm Calm - N/A   Clear
2:56 AM 38.8 °F 36.5 °F 38.8 °F 100% 30.07 in 10.0 mi NW 3.5 mph - N/A   Clear
3:56 AM 36.9 °F - 36.9 °F 100% 30.07 in 10.0 mi Calm Calm - N/A   Clear
4:56 AM 36.0 °F 32.1 °F 36.0 °F 100% 30.08 in 10.0 mi West 4.6 mph - N/A   Clear
5:56 AM 34.0 °F - 34.0 °F 100% 30.10 in 8.0 mi Calm Calm - N/A   Clear
6:56 AM 36.9 °F - 36.9 °F 100% 30.11 in 5.0 mi Calm Calm - N/A   Clear
7:56 AM 47.8 °F - 41.9 °F 80% 30.12 in 7.0 mi Calm Calm - N/A   Clear
8:56 AM 57.9 °F - 41.9 °F 55% 30.11 in 10.0 mi North 3.5 mph - N/A   Clear
9:56 AM 63.9 °F - 41.0 °F 43% 30.11 in 10.0 mi Calm Calm - N/A   Clear
10:56 AM 70.0 °F - 43.9 °F 39% 30.09 in 10.0 mi West 5.8 mph - N/A   Clear
11:56 AM 77.0 °F - 41.0 °F 28% 30.05 in 10.0 mi West 8.1 mph - N/A   Clear
12:56 PM 77.9 °F - 41.0 °F 27% 30.04 in 10.0 mi West 10.4 mph - N/A   Clear
1:56 PM 79.9 °F - 39.9 °F 24% 30.03 in 10.0 mi West 9.2 mph - N/A   Clear
2:56 PM 79.9 °F - 39.9 °F 24% 30.01 in 10.0 mi West 6.9 mph - N/A   Clear
3:56 PM 75.9 °F - 41.0 °F 29% 30.02 in 10.0 mi West 8.1 mph - N/A   Clear
4:56 PM 72.9 °F - 45.9 °F 38% 30.04 in 10.0 mi WNW 6.9 mph - N/A   Clear
5:56 PM 68.0 °F - 47.8 °F 48% 30.06 in 10.0 mi West 6.9 mph - N/A   Clear
6:56 PM 64.9 °F - 47.8 °F 54% 30.09 in 10.0 mi West 3.5 mph - N/A   Clear
7:56 PM 59.0 °F - 46.9 °F 64% 30.11 in 10.0 mi Calm Calm - N/A   Clear
8:56 PM 50.0 °F - 45.0 °F 83% 30.12 in 10.0 mi Calm Calm - N/A   Clear
9:56 PM 46.9 °F - 41.9 °F 83% 30.12 in 10.0 mi Calm Calm - N/A   Clear
10:56 PM 43.9 °F - 41.0 °F 90% 30.13 in 10.0 mi Calm Calm - N/A   Clear
11:56 PM 43.9 °F - 43.0 °F 97% 30.13 in 8.0 mi Calm Calm - N/A   Clear